Home   Weather   Victoria   Past weeks
Flag for Canada

Past Weather in Victoria, British Columbia, Canada — April 2018

Now
36 °F

Passing clouds.


Feels Like: 36 °F
Forecast: 54 / 43 °F
Wind: 2 mph from West

Location: Victoria Int. Airportb. C.

Current Time: Apr 8, 2020 at 5:58:46 am

Latest Report: Apr 8, 2020 at 5:00 am


Visibility: 30 mi

Pressure: 30.33 "Hg

Humidity: 100%

Dew Point: 36 °F

Location of VictoriaLocation

April 2018 Weather in Victoria — Graph

°F

High & Low Weather Summary for April 2018

 TemperatureHumidityPressure
High75 °F (Apr 26, 4:00 pm)100% (Apr 4, 4:31 pm)30.44 "Hg (Apr 4, 4:31 pm)
Low30 °F (Apr 2, 7:00 am)27% (Apr 26, 4:00 pm)29.29 "Hg (Apr 7, 7:00 am)
Average49 °F79%29.99 "Hg
* Reported Apr 1 12:00 am — Apr 30 11:00 pm, Victoria. Weather by CustomWeather, © 2020

Note: Actual official high and low records may vary slightly from our data, if they occured in-between our weather recording intervals... More about our weather records

Victoria Weather History for April 1, 2018

Scroll right to see more
 ConditionsComfort  
Time TempWeatherWind HumidityBarometerVisibility
12:00 am
Sun, Apr 1
48 °FOvercast.10 mph66%30.04 "Hg30 mi
1:00 am46 °FOvercast.8 mph66%30.03 "Hg30 mi
2:00 am46 °FOvercast.10 mph66%30.02 "Hg30 mi
3:00 am46 °FPassing clouds.14 mph66%30.00 "Hg30 mi
4:00 am46 °FPassing clouds.16 mph66%29.98 "Hg30 mi
5:00 am46 °FPassing clouds.9 mph66%29.97 "Hg30 mi
6:00 am46 °FPassing clouds.5 mph62%29.94 "Hg30 mi
7:00 am45 °FBroken clouds.12 mph66%29.94 "Hg30 mi
8:00 am45 °FScattered clouds.8 mph66%29.92 "Hg30 mi
9:00 am45 °FBroken clouds.5 mph71%29.91 "Hg30 mi
10:00 am46 °FBroken clouds.7 mph66%29.90 "Hg30 mi
11:01 am48 °FBroken clouds.10 mph46%29.89 "Hg30 mi
12:00 pm50 °FScattered clouds.14 mph43%29.87 "Hg30 mi
1:00 pm48 °FScattered clouds.15 mph40%29.85 "Hg30 mi
2:00 pm52 °FScattered clouds.18 mph38%29.84 "Hg30 mi
3:00 pm45 °FBroken clouds.18 mph66%29.84 "Hg30 mi
4:00 pm46 °FBroken clouds.9 mph66%29.83 "Hg30 mi
6:00 pm45 °FBroken clouds.10 mph66%29.82 "Hg30 mi
6:42 pm43 °FSprinkles. Partly sunny.9 mph71%29.83 "Hg30 mi
7:22 pm41 °FBroken clouds.6 mph76%29.82 "Hg30 mi
8:00 pm41 °FSprinkles. Partly cloudy.No wind76%29.82 "Hg30 mi
8:32 pm41 °FPassing clouds.3 mph76%29.82 "Hg30 mi
9:00 pm37 °FPassing clouds.6 mph87%29.81 "Hg30 mi
10:00 pm39 °FPassing clouds.7 mph75%29.81 "Hg30 mi
10:56 pm36 °FPassing clouds.5 mph81%29.82 "Hg30 mi
11:00 pm36 °FPassing clouds.5 mph81%29.82 "Hg30 mi
Weather by CustomWeather, © 2020

See weather overview

Advertising